Miscellaneous Local Product
Issued by NWS Hastings, NE

Home | Current Version | Previous Version | Text Only | Print | Product List | Glossary Off
Versions: 1 2 3 4 5 6 7 8 9 10 11 12 13 14 15 16 17 18 19 20 21 22 23 24 25 26 27 28 29 30 31 32 33 34 35 36 37 38 39 40 41 42 43 44 45 46 47 48 49 50

668
AXUS43 KGID 181102
MISGRI

GID CWA HOURLY WEATHER ROUNDUP
NATIONAL WEATHER SERVICE HASTINGS NE
600 AM CDT WED APR 18 2018

NOTE: "FAIR" INDICATES FEW OR NO CLOUDS BELOW 12,000 FEET WITH NO
SIGNIFICANT WEATHER AND/OR OBSTRUCTIONS TO VISIBILITY.

...SOUTH CENTRAL NEBRASKA...

CITY           SKY/WX    TMP DP  RH WIND       PRES   REMARKS
GRAND ISLAND   CLOUDY    35  33  92 NW15      29.86R WCI  25
KEARNEY        MOCLDY    36  32  85 NW17      29.89R WCI  26
HASTINGS       CLOUDY    36  34  92 NW18      29.87R WCI  26
ORD            CLOUDY    32  30  92 NW21G28   29.87R WCI  20
YORK             N/A     32  32 100 N10       29.84R WCI  24
AURORA         CLOUDY    33  33  96 NW15      29.86R WCI  23
LEXINGTON      CLEAR     36  32  85 NW20G26   29.93R WCI  25
HOLDREGE       MOCLDY    37  33  87 NW20G28   29.91R WCI  26
HEBRON         CLOUDY    37  33  85 NW13G20   29.83R WCI  28

...NEBRASKA PANHANDLE...

CITY           SKY/WX    TMP DP  RH WIND       PRES   REMARKS
CHADRON        MOCLDY    35  31  85 W7        30.07R WCI  29
ALLIANCE       MOCLDY    35  31  85 NW21      30.03R WCI  24
SCOTTSBLUFF    CLEAR     30  25  81 W16       30.09R WCI  19
SIDNEY         CLEAR     31  24  75 NW17      30.05R WCI  19

...WESTERN AND NORTH CENTRAL NEBRASKA...

CITY           SKY/WX    TMP DP  RH WIND       PRES   REMARKS
VALENTINE      LGT SNOW  30  27  88 N13       29.99R FOG     WCI  20
AINSWORTH      LGT SNOW  29  28  99 N21       29.95R WCI  15
ONEILL         LGT SNOW  31  30  95 N12       29.91R WCI  22
BROKEN BOW     CLOUDY    35  33  92 NW18G30   29.90R WCI  24
IMPERIAL       CLEAR     37  30  75 W21G31    30.02R WCI  26
NORTH PLATTE   CLOUDY    40  32  73 N22G37    29.96R WCI  30
MCCOOK         CLEAR     38  32  79 NW17G26   29.98R WCI  28

...EASTERN NEBRASKA...

CITY           SKY/WX    TMP DP  RH WIND       PRES   REMARKS
NORFOLK        LGT SNOW  29  28  96 NW14      29.85R FOG     WCI  18
SO SIOUX CITY  LGT SNOW  31  28  89 N13       29.86R VSB 1   WCI  21
TEKAMAH        LGT SNOW  31  30  96 N18       29.80R FOG     WCI  19
COLUMBUS       FLURRIES  31  29  92 NW17      29.85R WCI  19
ALBION         CLOUDY    31  28  90 NW14      29.86R WCI  20
OMAHA EPPLEY   FLURRIES  35  31  85 N18       29.77R WCI  24
OFFUTT AFB     CLOUDY    34  32  93 N16G23    29.75R WCI  23
MILLARD        CLOUDY    36  32  86 N7        29.78R WCI  30
LINCOLN        FLURRIES  35  32  88 NW16      29.82R WCI  25
NEBRASKA CITY  CLOUDY    37  35  91 N20G28    29.73R WCI  26
BEATRICE       CLOUDY    37  32  85 NW18G24   29.80R WCI  26
FALLS CITY     PTCLDY    40  31  70 NW18G26   29.70R WCI  31

...NORTHERN KANSAS...

CITY           SKY/WX    TMP DP  RH WIND       PRES   REMARKS
GOODLAND       CLEAR     33  25  72 NW16      30.06R WCI  23
HILL CITY      CLEAR     42  34  73 NW21G35   29.98R
NORTON         MOSUNNY   39  32  75 NW21G26   29.96R WCI  29
PHILLIPSBURG   MOCLDY    43  34  70 W18       29.94R
SMITH CENTER   PTCLDY    37  34  87 NW20      29.91R WCI  27
BELOIT         CLOUDY     1   3 100 NW24G32   29.88R WCI -22
HAYS           CLEAR     43  33  68 NW28G36   29.94R
RUSSELL        PTCLDY    44  36  73 NW29G35   29.90S
CONCORDIA      CLOUDY    39  33  79 NW13G22   29.84R WCI  31
SALINA         MOCLDY    49  40  71 NW18      29.82R
TOPEKA         CLEAR     43  34  70 NW18G31   29.72R



USA.gov is the U.S. government's official web portal to all federal, state and local government web resources and services.